Weather in Mol

Belgium     51°11′29″N   5°07′00″E
temp.,
°C
wind,
m/s
gust,
m/s
humid.,
%
clouds,
%
prec.,
mm/h
press.,
hPa
HPBL,
m
30 november, tue
tue3001:00+3wsw61479100 0.1 1013737
04:00+4sw81886100 0.1 1010902
07:00+7wsw81595100 3.2 10081058
10:00+8wsw71595100 2.1 1008977
13:00+9w71494100 4.6 10081020
16:00+9w61395100 0.4 1008906
19:00+9wsw61393100 0.9 1008804
22:00+10sw61393100 0.3 1006916
1 december, wed
wed101:00+11sw91888100 0.8 10021395
04:00+9sw102085100 0.2 9991273
07:00+8sw102189100 1.0 9941554
10:00+9w61178100 2.2 9951048
13:00+9w8137682 2.6 9951289
16:00+8w71276100 0.6 9951296
19:00+7w6107797 1.1 996900
22:00+5n278885 1.6 999394
2 december, thu
thu201:00+5nw488294 1.6 1001499
04:00+4nw51179100 0.4 1001763
07:00+4wnw51274100 0.8 1002873
10:00+4wnw41071100 0.6 1003741
13:00+4nnw71085100 1.9 1004886
16:00+5nnw51165100 1.4 1005584
19:00+3wnw3786100 2.4 1007179
22:00+2w34815 0.1 100972
3 december, fri
fri301:00+1wsw368735 0.1 1010110
04:00+1wsw3892100 0.3 1010179
07:00+1sw41190100 0.6 1010328
10:00+2sw51188100 0.0 1010478
13:00+4ssw7137773 0.0 1008836
16:00+4ssw71375100 0.0 1006936
19:00+2s71485100 0.0 1002842
22:00+1s71697100 1.5 996817
4 december, sat
sat401:00+3sse41195100 7.2 988782
04:00+1wnw61598100 1.0 992676
07:00+3w41499100 6.4 994639
10:00+6w71488100 2.5 997962
13:00+5w71396100 6.2 999919
16:00+6wnw71385100 6.3 10011081
19:00+6wnw71382100 6.9 1003913
22:00+6wnw6137741 0.5 1005855